CW9236 Weather Reports


Display with metric or nautical units.
time (UTC)temp
F
wind
direction
speed
MPH
gust
MPH
rain 1hr
in
rain 24hr
in
rain mn
in
humidity
%
barometer
mb
20260503225009 79 82 0.0 6.0 0.00 0.00 0.00 38 1018.2
20260503224519 79 90 0.0 6.0 0.00 0.00 0.00 36 1018.3
20260503224009 79 74 1.0 5.0 0.00 0.00 0.00 38 1018.4
20260503223507 79 55 1.0 4.0 0.00 0.00 0.00 39 1018.4
20260503223008 78 63 2.0 4.0 0.00 0.00 0.00 37 1018.4
20260503222503 78 71 1.0 3.0 0.00 0.00 0.00 37 1018.5
20260503222006 79 283 1.0 3.0 0.00 0.00 0.00 36 1018.5
20260503221512 79 282 0.0 3.0 0.00 0.00 0.00 40 1018.6
20260503221007 79 282 1.0 3.0 0.00 0.00 0.00 38 1018.7
20260503220506 80 282 1.0 3.0 0.00 0.00 0.00 35 1018.8
20260503220020 80 86 0.0 5.0 0.00 0.00 0.00 35 1018.7
20260503215506 79 84 0.0 5.0 0.00 0.00 0.00 34 1018.7
20260503215013 79 93 1.0 6.0 0.00 0.00 0.00 36 1018.7
20260503214523 79 85 2.0 8.0 0.00 0.00 0.00 35 1018.7
20260503214010 80 80 3.0 9.0 0.00 0.00 0.00 40 1018.7
20260503213509 80 78 2.0 9.0 0.00 0.00 0.00 37 1018.8
20260503213010 80 62 2.0 7.0 0.00 0.00 0.00 33 1019.0
20260503212506 80 69 3.0 7.0 0.00 0.00 0.00 35 1019.2
20260503212005 80 92 1.0 5.0 0.00 0.00 0.00 35 1019.2
20260503211517 80 39 1.0 4.0 0.00 0.00 0.00 39 1019.3
20260503211006 80 71 1.0 6.0 0.00 0.00 0.00 39 1019.3
20260503210505 80 84 1.0 6.0 0.00 0.00 0.00 40 1019.4
20260503210019 80 82 1.0 6.0 0.00 0.00 0.00 37 1019.4
20260503205508 80 90 1.0 6.0 0.00 0.00 0.00 42 1019.4
20260503205008 79 86 0.0 6.0 0.00 0.00 0.00 36 1019.4
20260503204519 79 94 3.0 6.0 0.00 0.00 0.00 37 1019.5
20260503204009 80 68 2.0 6.0 0.00 0.00 0.00 37 1019.6
20260503203511 79 83 1.0 6.0 0.00 0.00 0.00 38 1019.8
20260503203019 79 66 2.0 6.0 0.00 0.00 0.00 40 1019.9
20260503202508 79 94 2.0 6.0 0.00 0.00 0.00 37 1020.0
20260503202006 78 87 0.0 4.0 0.00 0.00 0.00 37 1020.1
20260503201517 78 86 0.0 4.0 0.00 0.00 0.00 37 1020.1
20260503201006 78 111 0.0 4.0 0.00 0.00 0.00 36 1020.2
20260503200507 80 80 0.0 9.0 0.00 0.00 0.00 38 1020.3
20260503200024 79 83 2.0 9.0 0.00 0.00 0.00 37 1020.5
20260503195508 78 93 0.0 4.0 0.00 0.00 0.00 35 1020.7
20260503195009 78 88 0.0 8.0 0.00 0.00 0.00 38 1020.7
20260503194523 79 91 0.0 8.0 0.00 0.00 0.00 39 1020.8
20260503194009 80 84 1.0 5.0 0.00 0.00 0.00 39 1020.8
20260503193506 79 82 1.0 5.0 0.00 0.00 0.00 41 1020.8
20260503193012 79 69 2.0 4.0 0.00 0.00 0.00 38 1021.0
20260503192507 79 283 0.0 4.0 0.00 0.00 0.00 34 1021.0
20260503192006 79 69 1.0 6.0 0.00 0.00 0.00 40 1021.1
20260503191520 78 80 1.0 6.0 0.00 0.00 0.00 41 1021.3
20260503191010 78 95 2.0 4.0 0.00 0.00 0.00 40 1021.4
20260503190515 78 95 0.0 3.0 0.00 0.00 0.00 44 1021.5
20260503190026 78 284 0.0 6.0 0.00 0.00 0.00 35 1021.5
20260503185507 78 284 0.0 7.0 0.00 0.00 0.00 39 1021.6
20260503185011 78 74 3.0 7.0 0.00 0.00 0.00 39 1021.6
20260503184523 79 90 4.0 7.0 0.00 0.00 0.00 38 1021.7
20260503184012 79 81 2.0 4.0 0.00 0.00 0.00 42 1021.8
20260503183507 78 84 0.0 2.0 0.00 0.00 0.00 40 1021.8
20260503183018 77 91 0.0 5.0 0.00 0.00 0.00 39 1021.9
20260503182513 77 86 1.0 7.0 0.00 0.00 0.00 38 1022.1
20260503182009 78 94 3.0 7.0 0.00 0.00 0.00 43 1022.2
20260503181523 78 98 2.0 6.0 0.00 0.00 0.00 40 1022.2
20260503181010 77 88 2.0 6.0 0.00 0.00 0.00 39 1022.3
20260503180508 78 76 0.0 3.0 0.00 0.00 0.00 41 1022.4
20260503180030 77 286 0.0 4.0 0.00 0.00 0.00 41 1022.5
20260503175507 77 75 2.0 4.0 0.00 0.00 0.00 41 1022.6
20260503175007 77 84 1.0 6.0 0.00 0.00 0.00 43 1022.7
20260503174526 77 78 0.0 6.0 0.00 0.00 0.00 41 1022.7
20260503174010 78 95 0.0 4.0 0.00 0.00 0.00 42 1022.9
20260503173507 78 63 0.0 4.0 0.00 0.00 0.00 44 1022.9
20260503173036 77 83 1.0 3.0 0.00 0.00 0.00 44 1023.0
20260503172509 77 83 1.0 6.0 0.00 0.00 0.00 44 1023.1
20260503172011 77 70 1.0 6.0 0.00 0.00 0.00 45 1023.2
20260503171534 76 80 0.0 6.0 0.00 0.00 0.00 38 1023.2
20260503171009 77 83 2.0 6.0 0.00 0.00 0.00 40 1023.3
20260503170509 78 87 1.0 4.0 0.00 0.00 0.00 42 1023.4
20260503131005 63 267 0.0 0.0 0.00 0.01 0.00 89 1022.7
20260503130505 61 267 0.0 0.0 0.00 0.01 0.00 91 1022.6
20260503110507 55 279 0.0 0.0 0.00 0.01 0.00 94 1021.7
20260503090506 57 279 0.0 0.0 0.00 0.01 0.00 93 1021.1
20260503081522 57 279 0.0 0.0 0.00 0.01 0.00 92 1021.3
20260503081006 57 279 0.0 0.0 0.00 0.01 0.00 92 1021.3
20260503080507 56 279 0.0 0.0 0.00 0.01 0.00 91 1021.4
20260503072510 57 279 0.0 0.0 0.00 0.01 0.00 90 1021.4
20260503072008 57 279 0.0 0.0 0.00 0.01 0.00 90 1021.4
20260503071518 57 279 0.0 0.0 0.00 0.01 0.00 90 1021.3
20260503071011 58 279 0.0 0.0 0.00 0.01 0.00 90 1021.4
20260503070511 58 279 0.0 0.0 0.00 0.01 0.00 90 1021.4
20260503055011 59 279 0.0 0.0 0.00 0.01 0.00 88 1021.4
20260503054526 59 279 0.0 0.0 0.00 0.01 0.00 87 1021.4
20260503053508 59 279 0.0 0.0 0.00 0.01 0.00 87 1021.4
20260503052506 59 279 0.0 0.0 0.00 0.01 0.00 86 1021.2
20260503051007 60 279 0.0 0.0 0.00 0.01 0.00 86 1021.0
20260503050507 60 279 0.0 0.0 0.00 0.01 0.00 85 1021.0
20260503050028 60 279 0.0 0.0 0.00 0.01 0.00 85 1021.1
20260503045509 60 279 0.0 0.0 0.00 0.01 0.01 84 1021.0
20260503045007 60 279 0.0 0.0 0.00 0.01 0.01 84 1020.9
20260503044529 61 279 0.0 0.0 0.00 0.01 0.01 84 1021.0
20260503044011 60 279 0.0 0.0 0.00 0.01 0.01 84 1021.0
20260503043510 60 279 0.0 0.0 0.00 0.01 0.01 83 1021.0
20260503043021 61 279 0.0 0.0 0.00 0.01 0.01 83 1020.9
20260503042508 61 279 0.0 0.0 0.00 0.01 0.01 82 1020.9
20260503042008 61 279 0.0 0.0 0.00 0.01 0.01 82 1020.8
20260503041525 61 279 0.0 0.0 0.00 0.01 0.01 83 1020.9
20260503040511 61 279 0.0 0.0 0.00 0.01 0.01 82 1021.0
20260503035509 62 279 0.0 0.0 0.00 0.01 0.01 81 1021.0
20260503035010 62 279 0.0 0.0 0.00 0.01 0.01 81 1021.0
20260503034516 62 279 0.0 0.0 0.00 0.01 0.01 80 1020.9
20260503034012 62 279 0.0 0.0 0.00 0.01 0.01 80 1020.8
20260503033509 62 279 0.0 0.0 0.00 0.01 0.01 79 1020.7
20260503033038 62 279 0.0 0.0 0.00 0.01 0.01 79 1020.6
20260503032511 63 279 0.0 0.0 0.00 0.01 0.01 79 1020.6
20260503032010 63 279 0.0 0.0 0.00 0.01 0.01 78 1020.5
20260503031533 63 279 0.0 0.0 0.00 0.01 0.01 78 1020.4
20260503031010 64 279 0.0 2.0 0.00 0.01 0.01 78 1020.4
20260503030510 64 279 0.0 2.0 0.00 0.01 0.01 78 1020.4
20260503030027 64 279 0.0 0.0 0.00 0.01 0.01 75 1020.3
20260503025510 64 279 0.0 0.0 0.00 0.01 0.01 75 1020.3
20260503025011 64 279 0.0 0.0 0.00 0.01 0.01 74 1020.4
20260503024523 64 279 0.0 0.0 0.00 0.01 0.01 73 1020.4
20260503024009 64 279 0.0 0.0 0.00 0.01 0.01 72 1020.3
20260503023510 64 279 0.0 0.0 0.00 0.01 0.01 72 1020.3
20260503023040 65 279 0.0 0.0 0.00 0.01 0.01 70 1020.3
20260503022509 65 279 0.0 0.0 0.00 0.01 0.01 69 1020.2
20260503022016 66 279 0.0 0.0 0.00 0.01 0.01 69 1020.1
20260503021525 66 279 0.0 0.0 0.00 0.01 0.01 67 1020.0
20260503021008 66 279 0.0 0.0 0.00 0.01 0.01 66 1019.9
20260503020016 67 279 0.0 0.0 0.00 0.02 0.01 63 1020.0
20260503015010 68 279 0.0 0.0 0.00 0.03 0.01 61 1019.9
20260503014524 68 279 0.0 1.0 0.00 0.04 0.01 60 1019.8
20260503013506 69 279 0.0 2.0 0.00 0.05 0.01 59 1019.7
20260503012512 69 279 0.0 0.0 0.00 0.06 0.01 59 1019.6
20260503012012 69 279 0.0 0.0 0.00 0.07 0.01 58 1019.6
20260503011526 69 279 0.0 0.0 0.00 0.08 0.01 58 1019.5
20260503010514 70 279 0.0 1.0 0.00 0.12 0.01 55 1019.5
20260503005012 72 279 0.0 1.0 0.00 0.15 0.01 51 1019.3
20260503001008 73 280 0.0 6.0 0.00 0.18 0.01 51 1018.9
20260503000507 73 280 0.0 6.0 0.00 0.18 0.01 49 1018.8
20260503000024 73 245 0.0 5.0 0.00 0.19 0.01 47 1018.8
20260502235508 73 246 0.0 5.0 0.00 0.20 0.01 46 1018.6
20260502235007 74 275 0.0 4.0 0.00 0.22 0.01 46 1018.6
20260502234526 74 275 0.0 6.0 0.00 0.24 0.01 47 1018.6
20260502234011 74 280 1.0 6.0 0.00 0.27 0.01 45 1018.5
20260502233028 74 277 0.0 6.0 0.00 0.32 0.01 46 1018.6
20260502232510 74 277 1.0 8.0 0.00 0.33 0.01 45 1018.7
20260502231521 74 282 0.0 7.0 0.00 0.33 0.01 46 1018.6
20260502231007 74 277 2.0 7.0 0.00 0.33 0.01 44 1018.7
20260502230507 75 277 1.0 6.0 0.00 0.34 0.01 45 1018.7
20260502230022 74 261 0.0 6.0 0.00 0.36 0.01 45 1018.6
20260502225510 75 126 1.0 4.0 0.00 0.44 0.01 45 1018.7